Location: Hains Lake
(37.8540°N, 99.8578°W)
Time: 04:58:27
(UTC+00:00)

NOSS 0 Rocket - Pass Details

Date: 11 December 2019
Orbit: 934 x 956 km, 70.0° (Epoch: 25 January)

Event Time Altitude Azimuth Distance (km) Brightness Sun altitude
Rises 23:36:05 0° 208° (SSW) 3,593 8.0 -3.6°
Reaches altitude 10° 23:38:36 10° 210° (SSW) 2,655 7.3 -4.0°
Maximum altitude 23:44:46 73° 295° (WNW) 991 4.3 -5.1°
Drops below altitude 10° 23:51:00 10° 20° (NNE) 2,685 5.9 -6.2°
Sets 23:53:34 0° 22° (NNE) 3,636 6.6 -6.7°
